Time,TemperatureF,DewpointF,PressureIn,WindDirection,WindDirectionDegrees,WindSpeedMPH,WindSpeedGustMPH,Humidity,HourlyPrecipIn,Conditions,Clouds,dailyrainin,SoftwareType,DateUTC
2013-01-21 00:04:00,14.4,8.0,30.48,WNW,303,7.0,19.0,76,0.00,,,0.00,weatherlink.com 1.10,2013-01-21 06:04:00,
2013-01-21 00:19:00,14.3,8.0,30.48,NW,311,6.0,13.0,76,0.00,,,0.00,weatherlink.com 1.10,2013-01-21 06:19:00,
2013-01-21 00:34:00,13.9,7.0,30.48,NW,326,5.0,15.0,74,0.00,,,0.00,weatherlink.com 1.10,2013-01-21 06:34:00,
2013-01-21 00:50:00,13.3,6.0,30.48,NW,323,13.0,16.0,73,0.00,,,0.00,weatherlink.com 1.10,2013-01-21 06:50:00,
2013-01-21 01:05:00,12.9,6.0,30.48,West,273,9.0,18.0,73,0.00,,,0.00,weatherlink.com 1.10,2013-01-21 07:05:00,
2013-01-21 01:20:00,12.7,6.0,30.48,WNW,290,5.0,16.0,74,0.00,,,0.00,weatherlink.com 1.10,2013-01-21 07:20:00,
2013-01-21 01:35:00,12.3,5.0,30.48,WNW,287,7.0,20.0,73,0.00,,,0.00,weatherlink.com 1.10,2013-01-21 07:35:00,
2013-01-21 01:50:00,12.4,5.0,30.48,West,273,17.0,20.0,72,0.00,,,0.00,weatherlink.com 1.10,2013-01-21 07:50:00,
2013-01-21 02:05:00,11.7,3.0,30.48,NNW,336,16.0,24.0,68,0.00,,,0.00,weatherlink.com 1.10,2013-01-21 08:05:00,
2013-01-21 02:20:00,11.2,1.0,30.48,NW,317,12.0,20.0,64,0.00,,,0.00,weatherlink.com 1.10,2013-01-21 08:20:00,
2013-01-21 02:35:00,10.4,1.0,30.49,NNW,333,18.0,19.0,65,0.00,,,0.00,weatherlink.com 1.10,2013-01-21 08:35:00,
2013-01-21 02:50:00,10.2,0.0,30.50,NW,309,11.0,23.0,63,0.00,,,0.00,weatherlink.com 1.10,2013-01-21 08:50:00,
2013-01-21 03:05:00,9.6,-1.0,30.50,WNW,299,13.0,25.0,62,0.00,,,0.00,weatherlink.com 1.10,2013-01-21 09:05:00,
2013-01-21 03:20:00,9.0,-2.0,30.50,NNW,331,10.0,24.0,60,0.00,,,0.00,weatherlink.com 1.10,2013-01-21 09:20:00,
2013-01-21 03:35:00,8.4,-3.0,30.49,WNW,284,6.0,19.0,60,0.00,,,0.00,weatherlink.com 1.10,2013-01-21 09:35:00,
2013-01-21 03:50:00,8.1,-3.0,30.49,WNW,300,13.0,17.0,61,0.00,,,0.00,weatherlink.com 1.10,2013-01-21 09:50:00,
2013-01-21 04:05:00,7.2,-3.0,30.49,NW,322,17.0,24.0,63,0.00,,,0.00,weatherlink.com 1.10,2013-01-21 10:05:00,
2013-01-21 04:21:00,6.8,-2.0,30.50,WNW,291,8.0,15.0,66,0.00,,,0.00,weatherlink.com 1.10,2013-01-21 10:21:00,
2013-01-21 04:36:00,6.4,-2.0,30.50,NW,320,6.0,19.0,67,0.00,,,0.00,weatherlink.com 1.10,2013-01-21 10:36:00,
2013-01-21 04:51:00,6.2,-3.0,30.50,WNW,292,12.0,20.0,65,0.00,,,0.00,weatherlink.com 1.10,2013-01-21 10:51:00,
2013-01-21 05:06:00,5.9,-3.0,30.50,NW,317,5.0,15.0,67,0.00,,,0.00,weatherlink.com 1.10,2013-01-21 11:06:00,
2013-01-21 05:21:00,5.3,-4.0,30.49,NW,312,16.0,21.0,66,0.00,,,0.00,weatherlink.com 1.10,2013-01-21 11:21:00,
2013-01-21 05:36:00,4.7,-4.0,30.49,West,277,13.0,19.0,66,0.00,,,0.00,weatherlink.com 1.10,2013-01-21 11:36:00,
2013-01-21 05:51:00,3.6,-5.0,30.50,WNW,294,7.0,18.0,67,0.00,,,0.00,weatherlink.com 1.10,2013-01-21 11:51:00,
2013-01-21 06:06:00,2.8,-6.0,30.50,WNW,302,9.0,18.0,66,0.00,,,0.00,weatherlink.com 1.10,2013-01-21 12:06:00,
2013-01-21 06:21:00,2.7,-6.0,30.52,NNW,345,5.0,14.0,68,0.00,,,0.00,weatherlink.com 1.10,2013-01-21 12:21:00,
2013-01-21 06:36:00,2.5,-5.0,30.52,WNW,302,11.0,13.0,70,0.00,,,0.00,weatherlink.com 1.10,2013-01-21 12:36:00,
2013-01-21 06:51:00,2.1,-6.0,30.52,NW,309,7.0,14.0,69,0.00,,,0.00,weatherlink.com 1.10,2013-01-21 12:51:00,
2013-01-21 07:06:00,2.0,-6.0,30.52,NW,304,6.0,16.0,69,0.00,,,0.00,weatherlink.com 1.10,2013-01-21 13:06:00,
2013-01-21 07:21:00,1.8,-6.0,30.52,NW,304,4.0,13.0,69,0.00,,,0.00,weatherlink.com 1.10,2013-01-21 13:21:00,
2013-01-21 07:36:00,1.9,-6.0,30.52,WNW,294,6.0,12.0,69,0.00,,,0.00,weatherlink.com 1.10,2013-01-21 13:36:00,
2013-01-21 07:52:00,1.9,-6.0,30.52,WNW,302,6.0,11.0,69,0.00,,,0.00,weatherlink.com 1.10,2013-01-21 13:52:00,
2013-01-21 08:07:00,1.9,-6.0,30.52,WNW,291,9.0,13.0,69,0.00,,,0.00,weatherlink.com 1.10,2013-01-21 14:07:00,
2013-01-21 08:22:00,1.9,-6.0,30.52,WNW,293,4.0,14.0,70,0.00,,,0.00,weatherlink.com 1.10,2013-01-21 14:22:00,
2013-01-21 08:37:00,2.4,-5.0,30.53,WNW,300,6.0,13.0,70,0.00,,,0.00,weatherlink.com 1.10,2013-01-21 14:37:00,
2013-01-21 08:52:00,2.6,-5.0,30.52,WNW,294,5.0,17.0,69,0.00,,,0.00,weatherlink.com 1.10,2013-01-21 14:52:00,
2013-01-21 09:07:00,2.8,-6.0,30.53,WNW,285,8.0,14.0,67,0.00,,,0.00,weatherlink.com 1.10,2013-01-21 15:07:00,
2013-01-21 09:22:00,3.0,-6.0,30.54,WNW,293,7.0,11.0,66,0.00,,,0.00,weatherlink.com 1.10,2013-01-21 15:22:00,
2013-01-21 09:37:00,3.5,-6.0,30.54,West,277,6.0,11.0,65,0.00,,,0.00,weatherlink.com 1.10,2013-01-21 15:37:00,
2013-01-21 09:52:00,3.8,-6.0,30.54,WNW,293,7.0,11.0,64,0.00,,,0.00,weatherlink.com 1.10,2013-01-21 15:52:00,
2013-01-21 10:07:00,3.8,-6.0,30.55,WNW,294,7.0,9.0,64,0.00,,,0.00,weatherlink.com 1.10,2013-01-21 16:07:00,
2013-01-21 10:22:00,4.0,-6.0,30.55,West,263,5.0,9.0,64,0.00,,,0.00,weatherlink.com 1.10,2013-01-21 16:22:00,
2013-01-21 10:37:00,4.0,-6.0,30.54,WNW,291,7.0,15.0,62,0.00,,,0.00,weatherlink.com 1.10,2013-01-21 16:37:00,
2013-01-21 10:52:00,4.0,-7.0,30.55,WNW,282,6.0,12.0,61,0.00,,,0.00,weatherlink.com 1.10,2013-01-21 16:52:00,
2013-01-21 11:08:00,4.3,-7.0,30.54,West,277,5.0,12.0,61,0.00,,,0.00,weatherlink.com 1.10,2013-01-21 17:08:00,
2013-01-21 11:23:00,5.0,-6.0,30.54,NW,306,7.0,12.0,61,0.00,,,0.00,weatherlink.com 1.10,2013-01-21 17:23:00,
2013-01-21 11:38:00,5.6,-6.0,30.54,WNW,295,11.0,12.0,60,0.00,,,0.00,weatherlink.com 1.10,2013-01-21 17:38:00,
2013-01-21 11:53:00,5.9,-5.0,30.53,WNW,288,5.0,11.0,61,0.00,,,0.00,weatherlink.com 1.10,2013-01-21 17:53:00,
2013-01-21 12:08:00,6.4,-5.0,30.52,WNW,301,8.0,13.0,59,0.00,,,0.00,weatherlink.com 1.10,2013-01-21 18:08:00,
2013-01-21 12:23:00,6.3,-5.0,30.52,WNW,302,9.0,11.0,60,0.00,,,0.00,weatherlink.com 1.10,2013-01-21 18:23:00,
2013-01-21 12:38:00,6.7,-5.0,30.51,West,265,6.0,13.0,60,0.00,,,0.00,weatherlink.com 1.10,2013-01-21 18:38:00,
2013-01-21 13:08:00,7.1,-5.0,30.49,West,278,8.0,12.0,58,0.00,,,0.00,weatherlink.com 1.10,2013-01-21 19:08:00,
2013-01-21 13:23:00,7.4,-5.0,30.49,WNW,294,10.0,14.0,56,0.00,,,0.00,weatherlink.com 1.10,2013-01-21 19:23:00,
2013-01-21 13:38:00,8.5,-4.0,30.49,WNW,287,8.0,10.0,57,0.00,,,0.00,weatherlink.com 1.10,2013-01-21 19:38:00,
2013-01-21 13:53:00,9.0,-5.0,30.48,WNW,292,6.0,12.0,54,0.00,,,0.00,weatherlink.com 1.10,2013-01-21 19:53:00,
2013-01-21 14:08:00,8.7,-5.0,30.48,West,275,10.0,14.0,53,0.00,,,0.00,weatherlink.com 1.10,2013-01-21 20:08:00,
2013-01-21 14:23:00,9.4,-5.0,30.48,West,270,5.0,8.0,53,0.00,,,0.00,weatherlink.com 1.10,2013-01-21 20:23:00,
2013-01-21 14:39:00,10.4,-5.0,30.47,WNW,302,10.0,14.0,51,0.00,,,0.00,weatherlink.com 1.10,2013-01-21 20:39:00,
2013-01-21 14:54:00,10.9,-5.0,30.48,WNW,293,13.0,15.0,50,0.00,,,0.00,weatherlink.com 1.10,2013-01-21 20:54:00,
2013-01-21 15:09:00,11.3,-5.0,30.46,West,275,18.0,18.0,49,0.00,,,0.00,weatherlink.com 1.10,2013-01-21 21:09:00,
2013-01-21 15:24:00,10.7,-5.0,30.46,WSW,257,6.0,14.0,49,0.00,,,0.00,weatherlink.com 1.10,2013-01-21 21:24:00,
2013-01-21 15:39:00,10.7,-5.0,30.46,WNW,288,5.0,13.0,50,0.00,,,0.00,weatherlink.com 1.10,2013-01-21 21:39:00,
2013-01-21 15:54:00,10.9,-4.0,30.46,WSW,252,4.0,14.0,51,0.00,,,0.00,weatherlink.com 1.10,2013-01-21 21:54:00,
2013-01-21 16:09:00,10.9,-5.0,30.46,WNW,299,11.0,13.0,50,0.00,,,0.00,weatherlink.com 1.10,2013-01-21 22:09:00,
2013-01-21 16:24:00,11.1,-4.0,30.46,West,270,9.0,11.0,51,0.00,,,0.00,weatherlink.com 1.10,2013-01-21 22:24:00,
2013-01-21 16:39:00,11.1,-4.0,30.45,West,272,6.0,12.0,51,0.00,,,0.00,weatherlink.com 1.10,2013-01-21 22:39:00,
2013-01-21 16:54:00,11.2,-3.0,30.45,WNW,283,4.0,10.0,52,0.00,,,0.00,weatherlink.com 1.10,2013-01-21 22:54:00,
2013-01-21 17:09:00,11.2,-3.0,30.44,WNW,290,3.0,12.0,52,0.00,,,0.00,weatherlink.com 1.10,2013-01-21 23:09:00,
2013-01-21 17:24:00,11.2,-3.0,30.44,WNW,302,7.0,11.0,52,0.00,,,0.00,weatherlink.com 1.10,2013-01-21 23:24:00,
2013-01-21 17:39:00,11.1,-4.0,30.44,WNW,293,4.0,11.0,52,0.00,,,0.00,weatherlink.com 1.10,2013-01-21 23:39:00,
2013-01-21 17:55:00,11.0,-3.0,30.44,West,281,7.0,11.0,53,0.00,,,0.00,weatherlink.com 1.10,2013-01-21 23:55:00,
2013-01-21 18:10:00,11.0,-3.0,30.44,NNW,336,3.0,9.0,54,0.00,,,0.00,weatherlink.com 1.10,2013-01-22 00:10:00,
2013-01-21 18:25:00,10.3,-2.0,30.45,NNE,22,0.0,6.0,59,0.00,,,0.00,weatherlink.com 1.10,2013-01-22 00:25:00,
2013-01-21 18:40:00,10.1,-2.0,30.45,NNE,17,2.0,5.0,59,0.00,,,0.00,weatherlink.com 1.10,2013-01-22 00:40:00,
2013-01-21 18:55:00,9.8,-2.0,30.45,NNE,19,2.0,4.0,60,0.00,,,0.00,weatherlink.com 1.10,2013-01-22 00:55:00,
2013-01-21 19:10:00,9.8,-1.0,30.45,NNE,19,2.0,4.0,62,0.00,,,0.00,weatherlink.com 1.10,2013-01-22 01:10:00,
2013-01-21 19:25:00,9.6,-1.0,30.46,NNE,22,2.0,5.0,63,0.00,,,0.00,weatherlink.com 1.10,2013-01-22 01:25:00,
2013-01-21 19:40:00,9.4,-1.0,30.46,NNE,13,2.0,6.0,64,0.00,,,0.00,weatherlink.com 1.10,2013-01-22 01:40:00,
2013-01-21 19:55:00,9.3,-1.0,30.46,NNE,20,3.0,6.0,63,0.00,,,0.00,weatherlink.com 1.10,2013-01-22 01:55:00,
2013-01-21 20:10:00,9.2,-1.0,30.46,NE,37,3.0,7.0,64,0.00,,,0.00,weatherlink.com 1.10,2013-01-22 02:10:00,
2013-01-21 20:25:00,8.8,-1.0,30.46,NNE,16,1.0,6.0,64,0.00,,,0.00,weatherlink.com 1.10,2013-01-22 02:25:00,
2013-01-21 20:40:00,8.7,-1.0,30.46,North,355,1.0,4.0,64,0.00,,,0.00,weatherlink.com 1.10,2013-01-22 02:40:00,
2013-01-21 20:55:00,8.6,-1.0,30.46,North,5,2.0,5.0,64,0.00,,,0.00,weatherlink.com 1.10,2013-01-22 02:55:00,
2013-01-21 21:10:00,8.5,-2.0,30.46,North,5,1.0,4.0,64,0.00,,,0.00,weatherlink.com 1.10,2013-01-22 03:10:00,
2013-01-21 21:26:00,8.6,-1.0,30.46,North,10,3.0,4.0,65,0.00,,,0.00,weatherlink.com 1.10,2013-01-22 03:26:00,
2013-01-21 21:41:00,8.4,-1.0,30.46,North,11,3.0,4.0,65,0.00,,,0.00,weatherlink.com 1.10,2013-01-22 03:41:00,
2013-01-21 21:56:00,8.1,-1.0,30.45,North,11,2.0,2.0,66,0.00,,,0.00,weatherlink.com 1.10,2013-01-22 03:56:00,
2013-01-21 22:11:00,8.0,-1.0,30.45,North,11,2.0,3.0,66,0.00,,,0.00,weatherlink.com 1.10,2013-01-22 04:11:00,
2013-01-21 22:26:00,8.1,-1.0,30.45,North,11,1.0,3.0,66,0.00,,,0.00,weatherlink.com 1.10,2013-01-22 04:26:00,
2013-01-21 22:41:00,8.1,-1.0,30.45,North,11,2.0,4.0,67,0.00,,,0.00,weatherlink.com 1.10,2013-01-22 04:41:00,
2013-01-21 22:56:00,8.1,-1.0,30.44,North,11,2.0,4.0,67,0.00,,,0.00,weatherlink.com 1.10,2013-01-22 04:56:00,
2013-01-21 23:11:00,8.0,-1.0,30.44,North,11,2.0,4.0,67,0.00,,,0.00,weatherlink.com 1.10,2013-01-22 05:11:00,
2013-01-21 23:26:00,7.9,-1.0,30.44,North,11,1.0,2.0,68,0.00,,,0.00,weatherlink.com 1.10,2013-01-22 05:26:00,
2013-01-21 23:41:00,8.0,0.0,30.43,North,11,0.0,2.0,69,0.00,,,0.00,weatherlink.com 1.10,2013-01-22 05:41:00,
2013-01-21 23:56:00,8.4,0.0,30.44,SSW,213,3.0,5.0,69,0.00,,,0.00,weatherlink.com 1.10,2013-01-22 05:56:00,